Location: Unspecified
(0.0000°N, 0.0000°E)
Time: 14:12:57
(UTC+00:00)

N. Korean satellite - Visible Passes

Search period start: 18 May 2021 00:00
Search period end: 28 May 2021 00:00
Orbit: 450 x 501 km, 97.2° (Epoch: 18 May)

Date Brightness Start Highest point End Pass type
(mag) Time Alt. Az. Time Alt. Az. Time Alt. Az.
18 May 9.7 04:10:17 10° E 04:11:15 11° ESE 04:12:12 10° ESE visible
19 May 6.7 05:13:53 10° N 05:17:10 47° W 05:20:31 10° SSW visible
20 May 7.3 04:46:46 10° NNE 04:50:05 50° E 04:53:29 10° S visible
21 May 9.3 04:20:41 10° ENE 04:23:02 17° ESE 04:25:25 10° SE visible
22 May 7.4 05:25:58 10° NNW 05:28:58 28° W 05:32:02 10° SW visible
23 May 6.4 04:58:26 10° NNE 05:01:52 87° E 05:05:23 10° S visible
24 May 8.5 04:31:49 10° NE 04:34:47 27° E 04:37:50 10° SSE visible
26 May 6.6 05:10:14 10° N 05:13:38 55° W 05:17:05 10° SSW visible
27 May 7.6 04:43:12 10° NNE 04:46:31 44° E 04:49:56 10° S visible
